Location: Acheville
(50.3840°N, 2.8827°E)
Time: 12:52:21
(UTC+00:00)

Resurs 01 Rocket - Pass Details

Date: 24 October 2021
Orbit: 635 x 643 km, 97.9° (Epoch: 05 December)

Event Time Altitude Azimuth Distance (km) Brightness Sun altitude
Exits shadow 19:57:01 13° 356° (N) 1,869 4.2 -31.9°
Drops below altitude 10° 19:57:27 10° 354° (N) 2,042 4.5 -31.9°
Sets 19:59:42 0° 350° (N) 2,957 5.4 -32.3°
